Tracking 35275 objects as of 9-Sep-2026
HD Live streaming from Space Station
objects crossing your sky now

STARLINK-6219

Track STARLINK-6219 now!
10-day predictions
STARLINK-6219 is classified as:


NORAD ID: 56892
Int'l Code: 2023-083S
Launch date: June 12, 2023
Source: United States (US)
Launch site: AIR FORCE EASTERN TEST RANGE (AFETR)
Your satellite tracking list
Your tracking list is empty




NASA's NSSDC Master Catalog

Two Line Element Set (TLE):
1 56892U 23083S   26252.08570440  .00000440  00000-0  25518-4 0  9994
2 56892  43.0018 133.2888 0001404 244.3271 115.7436 15.27576698179632
Source of the keplerian elements: AFSPC